Tracking 18851 objects as of 25-Nov-2017
HD Live streaming from Space Station
objects crossing your sky now

COSMOS 878

Track COSMOS 878 now!
10-day predictions
COSMOS 878 is classified as:


NORAD ID: 9595
Int'l Code: 1976-118H
Perigee: 1,470.9 km
Apogee: 1,481.5 km
Inclination: 74.0 °
Period: 115.3 minutes
Semi major axis: 7847 km
RCS: 0.6837 m2 (medium)
Launch date: December 7, 1976
Source: Commonwealth of Independent States (former USSR) (CIS)
Launch site: PLESETSK MISSILE AND SPACE COMPLEX (PKMTR)
aabbcc
Your satellite tracking list
Your tracking list is empty




NASA's NSSDC Master Catalog

Two Line Element Set (TLE):
1 09595U 76118H   17328.84608976 -.00000021  00000-0 -35406-4 0  9997
2 09595  74.0301 203.4149 0006745 165.3048 268.3031 12.48899701867842
Source of the keplerian elements: AFSPC